This demonstration page uses our WeatherBlox Daily Observations layout. Learn more.

Left ArrowRight Arrow

Hourly Observations for March 16, 2018

Temp ( °F °C ) Dew Point ( °F °C ) Humidity (%) Winds ( mph kmh ) Pressure ( in mb ) Visibility ( mi km ) Precip ( " mm )
12:15 am 00:15 Clear 37 3 27 -3 65 65 NNW 12 19 29.80 1009 10 16 N/A
12:35 am 00:35 Partly Cloudy 37 3 27 -3 65 65 NW 9 15 29.80 1009 10 16 N/A
12:55 am 00:55 Clear 37 3 27 -3 65 65 NW 17 28 29.77 1008 10 16 N/A
1:15 am 01:15 Partly Cloudy 39 4 25 -4 56 56 NW 15 24 29.77 1008 10 16 N/A
1:35 am 01:35 Partly Cloudy 37 3 23 -5 56 56 NW 15 24 29.80 1009 10 16 N/A
1:55 am 01:55 Clear 37 3 23 -5 56 56 NW 15 24 29.80 1009 10 16 N/A
2:15 am 02:15 Clear 37 3 23 -5 56 56 NW 16 26 29.80 1009 10 16 N/A
2:35 am 02:35 Clear 36 2 23 -5 60 60 NW 12 19 29.80 1009 10 16 N/A
2:55 am 02:55 Clear 36 2 23 -5 60 60 NW 12 19 29.80 1009 10 16 N/A
3:15 am 03:15 Clear 36 2 23 -5 60 60 NW 9 15 29.80 1009 10 16 N/A
3:35 am 03:35 Clear 34 1 23 -5 65 65 NW 9 15 29.80 1009 10 16 N/A
3:55 am 03:55 Clear 34 1 23 -5 65 65 NW 10 17 29.80 1009 10 16 N/A
4:15 am 04:15 Clear 34 1 23 -5 65 65 NW 10 17 29.80 1009 10 16 N/A
4:35 am 04:35 Clear 34 1 23 -5 65 65 NW 9 15 29.80 1009 10 16 N/A
4:55 am 04:55 Clear 32 undefined 23 -5 69 69 NW 7 11 29.80 1009 10 16 N/A
5:15 am 05:15 Clear 32 undefined 23 -5 69 69 NW 7 11 29.80 1009 10 16 N/A
5:35 am 05:35 Clear 32 undefined 23 -5 69 69 NW 7 11 29.83 1010 10 16 N/A
5:55 am 05:55 Clear 32 undefined 23 -5 69 69 NNW 7 11 29.83 1010 10 16 N/A
6:15 am 06:15 Clear 32 undefined 23 -5 69 69 WNW 5 7 29.83 1010 10 16 N/A
6:35 am 06:35 Clear 32 undefined 23 -5 69 69 W 5 7 29.83 1010 10 16 N/A
6:55 am 06:55 Clear 28 -2 23 -5 80 80 W 5 7 29.85 1011 10 16 N/A
7:15 am 07:15 Mostly Cloudy 30 -1 25 -4 80 80 WNW 7 11 29.85 1011 10 16 N/A
7:35 am 07:35 Cloudy 36 2 28 -2 75 75 NNW 22 35 29.88 1012 10 16 N/A
7:55 am 07:55 Windy with Snow Likely 34 1 30 -1 87 87 NNW 25 41 29.91 1013 4 6 N/A
8:15 am 08:15 Cloudy with Light Snow 32 undefined 30 -1 93 93 N 17 28 29.91 1013 3 4 N/A
8:35 am 08:35 Cloudy 34 1 28 -2 81 81 NNW 23 37 29.94 1014 10 16 N/A
8:55 am 08:55 Cloudy 34 1 25 -4 70 70 NNW 23 37 29.94 1014 10 16 N/A
9:15 am 09:15 Mostly Cloudy 34 1 18 -8 51 51 NW 26 43 29.94 1014 10 16 N/A
9:35 am 09:35 Sunny 36 2 16 -9 44 44 NNW 30 48 29.97 1015 10 16 N/A
9:55 am 09:55 Sunny 34 1 14 -10 44 44 NW 30 48 29.97 1015 10 16 N/A
10:15 am 10:15 Sunny 36 2 14 -10 41 41 NW 23 37 29.97 1015 10 16 N/A
10:35 am 10:35 Sunny 36 2 16 -9 44 44 NW 25 41 29.97 1015 10 16 N/A
10:55 am 10:55 Partly Cloudy 36 2 14 -10 41 41 NNW 21 33 30.00 1016 10 16 N/A
11:15 am 11:15 Mostly Cloudy 36 2 16 -9 44 44 NW 18 30 30.00 1016 10 16 N/A
11:35 am 11:35 Partly Cloudy 37 3 18 -8 45 45 NNW 26 43 30.00 1016 10 16 N/A
11:55 am 11:55 Partly Cloudy 37 3 18 -8 45 45 N 22 35 30.00 1016 10 16 N/A
12:15 pm 12:15 Partly Cloudy 37 3 18 -8 45 45 NW 14 22 30.00 1016 10 16 N/A
12:35 pm 12:35 Sunny 39 4 18 -8 42 42 NNW 20 31 30.00 1016 10 16 N/A
12:55 pm 12:55 Sunny 43 6 19 -7 39 39 NW 21 33 30.00 1016 10 16 N/A
1:15 pm 13:15 Sunny 41 5 18 -8 39 39 NW 18 30 30.00 1016 10 16 N/A
1:35 pm 13:35 Sunny 43 6 18 -8 36 36 NNW 24 39 30.00 1016 10 16 N/A
1:55 pm 13:55 Sunny 43 6 19 -7 39 39 NW 24 39 30.00 1016 10 16 N/A
2:15 pm 14:15 Sunny 45 7 19 -7 37 37 NW 22 35 30.00 1016 10 16 N/A
2:35 pm 14:35 Sunny 45 7 18 -8 34 34 NNW 24 39 30.00 1016 10 16 N/A
2:55 pm 14:55 Sunny 45 7 19 -7 37 37 NW 21 33 30.00 1016 10 16 N/A
3:15 pm 15:15 Sunny 45 7 19 -7 37 37 NW 23 37 30.00 1016 10 16 N/A
3:35 pm 15:35 Sunny 45 7 18 -8 34 34 NNW 25 41 30.00 1016 10 16 N/A
3:55 pm 15:55 Sunny 45 7 19 -7 37 37 NNW 22 35 30.00 1016 10 16 N/A
4:15 pm 16:15 Sunny 45 7 19 -7 37 37 NNW 23 37 30.00 1016 10 16 N/A
4:35 pm 16:35 Sunny 45 7 18 -8 34 34 NNW 23 37 30.03 1017 10 16 N/A
4:55 pm 16:55 Sunny 43 6 18 -8 36 36 N 20 31 30.03 1017 10 16 N/A
5:15 pm 17:15 Sunny 43 6 19 -7 39 39 NNW 17 28 30.03 1017 10 16 N/A
5:35 pm 17:35 Sunny 43 6 19 -7 39 39 NW 22 35 30.03 1017 10 16 N/A
5:55 pm 17:55 Sunny 43 6 18 -8 36 36 NNW 13 20 30.06 1018 10 16 N/A
6:15 pm 18:15 Sunny 43 6 18 -8 36 36 NNW 17 28 30.06 1018 10 16 N/A
6:35 pm 18:35 Sunny 41 5 18 -8 39 39 NNW 14 22 30.06 1018 10 16 N/A
6:55 pm 18:55 Sunny 41 5 18 -8 39 39 NW 14 22 30.06 1018 10 16 N/A
7:15 pm 19:15 Sunny 39 4 18 -8 42 42 NNW 14 22 30.06 1018 10 16 N/A
7:35 pm 19:35 Clear 37 3 18 -8 45 45 NW 9 15 30.06 1018 10 16 N/A
7:55 pm 19:55 Clear 37 3 16 -9 41 41 N N/A 30.09 1019 10 16 N/A
8:15 pm 20:15 Clear 37 3 16 -9 41 41 NNW 5 7 30.09 1019 10 16 N/A
8:35 pm 20:35 Clear 37 3 18 -8 45 45 NNW 8 13 30.09 1019 10 16 N/A
8:55 pm 20:55 Clear 36 2 16 -9 44 44 NNW 6 9 30.09 1019 10 16 N/A
9:15 pm 21:15 Clear 36 2 16 -9 44 44 NNW 5 7 30.09 1019 10 16 N/A
9:35 pm 21:35 Clear 34 1 18 -8 51 51 W 3 6 30.09 1019 10 16 N/A
9:55 pm 21:55 Clear 34 1 18 -8 51 51 NW 7 11 30.09 1019 10 16 N/A
10:15 pm 22:15 Clear 34 1 18 -8 51 51 NNW 5 7 30.09 1019 10 16 N/A
10:35 pm 22:35 Clear 34 1 18 -8 51 51 N N/A 30.09 1019 10 16 N/A
10:55 pm 22:55 Clear 34 1 18 -8 51 51 N 3 6 30.09 1019 10 16 N/A
11:15 pm 23:15 Clear 34 1 18 -8 51 51 N N/A 30.09 1019 10 16 N/A
11:35 pm 23:35 Clear 34 1 18 -8 51 51 N N/A 30.09 1019 10 16 N/A
11:55 pm 23:55 Clear 34 1 18 -8 51 51 N N/A 30.09 1019 10 16 N/A

Powered by AerisWeather